Time,TemperatureF,DewpointF,PressureIn,WindDirection,WindDirectionDegrees,WindSpeedMPH,WindSpeedGustMPH,Humidity,HourlyPrecipIn,Conditions,Clouds,dailyrainin,SoftwareType,DateUTC
2013-08-14 00:00:00,50.0,45.7,29.99,ESE,112,0.0,1.0,85,0.00,,---,0.00,VWS V14.01,2013-08-14 06:00:00,
2013-08-14 00:30:00,49.5,45.5,29.99,ESE,112,0.0,2.0,86,0.00,,---,0.00,VWS V14.01,2013-08-14 06:30:00,
2013-08-14 01:00:00,50.4,44.5,29.99,NW,315,1.0,6.0,80,0.00,,---,0.00,VWS V14.01,2013-08-14 07:00:00,
2013-08-14 01:30:00,51.0,44.0,30.00,NW,315,2.0,7.0,77,0.00,,---,0.00,VWS V14.01,2013-08-14 07:30:00,
2013-08-14 02:00:00,50.3,43.4,30.00,NW,315,3.0,7.0,77,0.00,,---,0.00,VWS V14.01,2013-08-14 08:00:00,
2013-08-14 02:30:00,49.6,42.7,30.00,NW,315,3.0,7.0,77,0.00,,---,0.00,VWS V14.01,2013-08-14 08:30:00,
2013-08-14 03:00:00,48.7,42.5,30.00,NW,315,3.0,8.0,79,0.00,,---,0.00,VWS V14.01,2013-08-14 09:00:00,
2013-08-14 03:30:00,49.0,42.5,30.01,WNW,292,5.0,11.0,78,0.00,,---,0.00,VWS V14.01,2013-08-14 09:30:00,
2013-08-14 04:00:00,48.2,42.0,30.01,NW,315,4.0,12.0,79,0.00,,---,0.00,VWS V14.01,2013-08-14 10:00:00,
2013-08-14 04:30:00,48.9,42.0,30.01,WNW,292,7.0,16.0,77,0.00,,---,0.00,VWS V14.01,2013-08-14 10:30:00,
2013-08-14 05:00:00,47.9,41.4,30.02,WNW,292,7.0,15.0,78,0.00,,---,0.00,VWS V14.01,2013-08-14 11:00:00,
2013-08-14 05:30:00,46.7,40.5,30.02,WNW,292,6.0,14.0,79,0.00,,---,0.00,VWS V14.01,2013-08-14 11:30:00,
2013-08-14 06:00:00,45.2,40.0,30.02,WNW,292,6.0,14.0,82,0.00,,---,0.00,VWS V14.01,2013-08-14 12:00:00,
2013-08-14 06:30:00,45.2,39.7,30.03,WNW,292,6.0,16.0,81,0.00,,---,0.00,VWS V14.01,2013-08-14 12:30:00,
2013-08-14 07:08:00,45.7,39.6,30.03,West,277,8.0,8.0,79,0.00,,---,0.00,VWS V14.01,2013-08-14 13:08:00,
2013-08-14 07:13:00,45.7,39.6,30.03,West,278,8.0,16.0,79,0.00,,---,0.00,VWS V14.01,2013-08-14 13:13:00,
2013-08-14 07:18:00,45.9,39.8,30.03,WSW,257,9.0,17.0,79,0.00,,---,0.00,VWS V14.01,2013-08-14 13:18:00,
2013-08-14 07:23:00,46.0,39.5,30.03,SW,226,8.0,17.0,78,0.00,,---,0.00,VWS V14.01,2013-08-14 13:23:00,
2013-08-14 07:28:00,46.2,39.7,30.03,WNW,285,5.0,17.0,78,0.00,,---,0.00,VWS V14.01,2013-08-14 13:28:00,
2013-08-14 07:30:00,46.3,39.8,30.03,SW,232,8.0,17.0,78,0.00,,---,0.00,VWS V14.01,2013-08-14 13:30:00,
2013-08-14 07:33:00,46.4,39.6,30.03,West,277,5.0,12.0,77,0.00,,---,0.00,VWS V14.01,2013-08-14 13:33:00,
2013-08-14 07:38:00,46.6,39.8,30.03,WNW,293,8.0,12.0,77,0.00,,---,0.00,VWS V14.01,2013-08-14 13:38:00,
2013-08-14 07:43:00,47.3,40.1,30.03,WSW,243,6.0,12.0,76,0.00,,---,0.00,VWS V14.01,2013-08-14 13:43:00,
2013-08-14 07:48:00,48.1,40.2,30.03,WNW,285,9.0,14.0,74,0.00,,---,0.00,VWS V14.01,2013-08-14 13:48:00,
2013-08-14 07:53:00,48.6,40.7,30.03,West,276,5.0,14.0,74,0.00,,---,0.00,VWS V14.01,2013-08-14 13:53:00,
2013-08-14 07:58:00,48.9,40.3,30.03,West,274,5.0,15.0,72,0.00,,---,0.00,VWS V14.01,2013-08-14 13:58:00,
2013-08-14 08:00:00,49.2,40.6,30.03,West,277,16.0,16.0,72,0.00,,---,0.00,VWS V14.01,2013-08-14 14:00:00,
2013-08-14 08:03:00,49.2,40.2,30.03,WNW,293,7.0,15.0,71,0.00,,---,0.00,VWS V14.01,2013-08-14 14:03:00,
2013-08-14 08:08:00,49.4,40.4,30.03,WSW,252,12.0,15.0,71,0.00,,---,0.00,VWS V14.01,2013-08-14 14:08:00,
2013-08-14 08:13:00,49.6,40.2,30.03,West,266,9.0,17.0,70,0.00,,---,0.00,VWS V14.01,2013-08-14 14:13:00,
2013-08-14 08:18:00,49.7,40.7,30.03,SW,225,6.0,17.0,71,0.00,,---,0.00,VWS V14.01,2013-08-14 14:18:00,
2013-08-14 08:23:00,50.0,40.2,30.03,WSW,257,11.0,17.0,69,0.00,,---,0.00,VWS V14.01,2013-08-14 14:23:00,
2013-08-14 08:28:00,50.5,40.7,30.03,WNW,288,12.0,17.0,69,0.00,,---,0.00,VWS V14.01,2013-08-14 14:28:00,
2013-08-14 08:30:00,50.8,40.6,30.03,West,271,7.0,17.0,68,0.00,,---,0.00,VWS V14.01,2013-08-14 14:30:00,
2013-08-14 08:33:00,51.0,40.8,30.03,WNW,293,5.0,13.0,68,0.00,,---,0.00,VWS V14.01,2013-08-14 14:33:00,
2013-08-14 08:38:00,51.6,41.4,30.03,West,273,12.0,20.0,68,0.00,,---,0.00,VWS V14.01,2013-08-14 14:38:00,
2013-08-14 08:43:00,51.8,40.8,30.03,West,274,7.0,20.0,66,0.00,,---,0.00,VWS V14.01,2013-08-14 14:43:00,
2013-08-14 08:48:00,52.2,41.6,30.03,WNW,283,6.0,20.0,67,0.00,,---,0.00,VWS V14.01,2013-08-14 14:48:00,
2013-08-14 09:00:00,53.4,41.9,30.03,WNW,292,8.0,20.0,65,0.00,,---,0.00,VWS V14.01,2013-08-14 15:00:00,
2013-08-14 09:30:00,55.6,41.5,30.02,WNW,292,9.0,18.0,59,0.00,,---,0.00,VWS V14.01,2013-08-14 15:30:00,
2013-08-14 10:00:00,58.2,41.7,30.01,WNW,292,8.0,15.0,54,0.00,,---,0.00,VWS V14.01,2013-08-14 16:00:00,
2013-08-14 10:30:00,61.7,43.4,30.00,WNW,292,7.0,14.0,51,0.00,,---,0.00,VWS V14.01,2013-08-14 16:30:00,
2013-08-14 11:00:00,64.5,44.9,29.98,WNW,292,6.0,13.0,49,0.00,,---,0.00,VWS V14.01,2013-08-14 17:00:00,
2013-08-14 11:30:00,67.6,45.5,29.97,WNW,292,6.0,10.0,45,0.00,,---,0.00,VWS V14.01,2013-08-14 17:30:00,
2013-08-14 12:00:00,73.0,34.1,29.95,NW,315,4.0,9.0,24,0.00,,---,0.00,VWS V14.01,2013-08-14 18:00:00,
2013-08-14 12:30:00,67.6,33.4,29.96,WNW,292,6.0,20.0,28,0.00,,---,0.00,VWS V14.01,2013-08-14 18:30:00,
2013-08-14 13:00:00,73.1,32.0,29.94,WSW,248,1.0,6.0,22,0.00,,---,0.00,VWS V14.01,2013-08-14 19:00:00,
2013-08-14 13:30:00,66.2,35.5,29.96,WNW,292,7.0,28.0,32,0.00,,---,0.00,VWS V14.01,2013-08-14 19:30:00,
2013-08-14 14:00:00,71.3,33.7,29.93,SSE,158,2.0,5.0,25,0.00,,---,0.00,VWS V14.01,2013-08-14 20:00:00,
2013-08-14 14:30:00,73.0,33.0,29.92,East,90,2.0,7.0,23,0.00,,---,0.00,VWS V14.01,2013-08-14 20:30:00,
2013-08-14 15:00:00,74.4,33.1,29.90,West,270,3.0,11.0,22,0.00,,---,0.00,VWS V14.01,2013-08-14 21:00:00,
2013-08-14 15:30:00,74.0,40.6,29.89,ENE,68,3.0,8.0,30,0.00,,---,0.00,VWS V14.01,2013-08-14 21:30:00,
2013-08-14 16:00:00,73.8,39.6,29.87,East,90,4.0,10.0,29,0.00,,---,0.00,VWS V14.01,2013-08-14 22:00:00,
2013-08-14 16:30:00,71.1,39.0,29.86,East,90,3.0,10.0,31,0.00,,---,0.00,VWS V14.01,2013-08-14 22:30:00,
2013-08-14 17:00:00,72.0,38.9,29.85,East,90,4.0,8.0,30,0.00,,---,0.00,VWS V14.01,2013-08-14 23:00:00,
2013-08-14 17:30:00,71.8,39.6,29.85,SSE,158,2.0,6.0,31,0.00,,---,0.00,VWS V14.01,2013-08-14 23:30:00,
2013-08-14 18:00:00,71.9,38.8,29.84,SSE,158,3.0,7.0,30,0.00,,---,0.00,VWS V14.01,2013-08-15 00:00:00,
2013-08-14 18:30:00,69.4,34.0,29.83,East,90,1.0,8.0,27,0.00,,---,0.00,VWS V14.01,2013-08-15 00:30:00,
2013-08-14 19:00:00,66.7,42.9,29.84,East,90,0.0,3.0,42,0.00,,---,0.00,VWS V14.01,2013-08-15 01:00:00,
2013-08-14 19:30:00,62.4,44.0,29.85,WSW,248,0.0,2.0,51,0.00,,---,0.00,VWS V14.01,2013-08-15 01:30:00,
2013-08-14 20:10:00,52.4,41.4,30.03,West,262,13.0,20.0,66,0.00,,---,0.00,VWS V14.01,2013-08-15 02:10:00,
2013-08-14 20:15:00,57.3,44.4,29.87,SSE,156,0.0,0.0,62,0.00,,---,0.00,VWS V14.01,2013-08-15 02:15:00,
2013-08-14 20:20:00,56.7,44.3,29.88,SSE,156,0.0,0.0,63,0.00,,---,0.00,VWS V14.01,2013-08-15 02:20:00,
2013-08-14 20:25:00,56.2,43.4,29.88,WNW,301,2.0,2.0,62,0.00,,---,0.00,VWS V14.01,2013-08-15 02:25:00,
2013-08-14 20:30:00,55.2,44.0,29.88,WNW,302,0.0,0.0,66,0.00,,---,0.00,VWS V14.01,2013-08-15 02:30:00,
2013-08-14 20:35:00,54.8,43.7,29.89,West,281,1.0,1.0,66,0.00,,---,0.00,VWS V14.01,2013-08-15 02:35:00,
2013-08-14 20:40:00,54.8,44.5,29.88,North,1,2.0,3.0,68,0.00,,---,0.00,VWS V14.01,2013-08-15 02:40:00,
2013-08-14 20:45:00,54.4,43.7,29.89,WNW,290,1.0,3.0,67,0.00,,---,0.00,VWS V14.01,2013-08-15 02:45:00,
2013-08-14 20:50:00,54.3,43.6,29.89,West,264,0.0,3.0,67,0.00,,---,0.00,VWS V14.01,2013-08-15 02:50:00,
2013-08-14 20:55:00,54.0,42.9,29.89,NNW,328,2.0,3.0,66,0.00,,---,0.00,VWS V14.01,2013-08-15 02:55:00,
2013-08-14 21:00:00,53.7,43.4,29.90,SW,222,0.0,3.0,68,0.00,,---,0.00,VWS V14.01,2013-08-15 03:00:00,
2013-08-14 21:05:00,53.3,42.6,29.90,NW,309,0.0,3.0,67,0.00,,---,0.00,VWS V14.01,2013-08-15 03:05:00,
2013-08-14 21:10:00,53.0,42.7,29.90,NW,308,1.0,3.0,68,0.00,,---,0.00,VWS V14.01,2013-08-15 03:10:00,
2013-08-14 21:30:00,51.7,42.6,29.92,WNW,292,0.0,3.0,71,0.00,,---,0.00,VWS V14.01,2013-08-15 03:30:00,
2013-08-14 22:00:00,49.9,42.3,29.93,WNW,292,0.0,2.0,75,0.00,,---,0.00,VWS V14.01,2013-08-15 04:00:00,
2013-08-14 22:30:00,48.3,41.8,29.94,NNE,22,0.0,2.0,78,0.00,,---,0.00,VWS V14.01,2013-08-15 04:30:00,
2013-08-14 23:00:00,46.7,40.9,29.94,NNW,338,0.0,1.0,80,0.00,,---,0.00,VWS V14.01,2013-08-15 05:00:00,
2013-08-14 23:30:00,45.7,40.8,29.96,NNW,338,0.0,0.0,83,0.00,,---,0.00,VWS V14.01,2013-08-15 05:30:00,